Flag Weather past 2 weeks in Bünde, North Rhine-Westphalia, Germany

Now
43 °F

Overcast.


Feels Like: 39 °F
Forecast: 34 / 46 °F
Wind: 7 mph from East

Location: Bueckeburg

Current Time: Nov 21, 2014 at 6:58:20 PM

Latest Report: Nov 21, 2014 at 6:20 PM


Visibility: N/A

Pressure: 30.21 "Hg

Humidity: 76%

Dew point: 36 °F

Location of BündeLocation

Historic Weather in Bünde — Graph

°F

Bünde temperature yesterday

Maximum temperature yesterday: 46 °F (at 1:20 PM)
Minimum temperature yesterday: 39 °F (at 11:20 PM)
Average temperature yesterday: 44 °F

Past Weeks' High & Low Weather Summary

 TemperatureHumidityPressure
High57 °F (Nov 11, 1:20 PM)100% (Nov 12, 5:20 PM)30.36 "Hg (Nov 12, 5:20 PM)
Low36 °F (Nov 21, 7:20 AM)63% (Nov 8, 12:20 PM)29.50 "Hg (Nov 16, 11:20 AM)
Average48 °F85%29.86 "Hg
* Reported Nov 6 5:20 PM — Nov 21 5:20 PM, Bünde, Weather by CustomWeather, © 2014

Note: Actual official high and low records may vary slightly from our data, if they occured in-between our weather recording intervals... More about our weather records

Advertising

Bünde weather history for previous 24 hours

 ConditionsComfort  
Time TempWeatherWind HumidityBarometerVisibility
5:20 PM
Nov 21
43 °FPassing clouds.8 mph81%30.21 "HgN/A
4:20 PM43 °FPartly sunny.8 mph81%30.21 "HgN/A
3:20 PM45 °FOvercast.6 mph76%30.24 "HgN/A
2:20 PM45 °FOvercast.7 mph76%30.24 "HgN/A
1:20 PM45 °FOvercast.7 mph76%30.24 "HgN/A
1:00 PM45 °FPartly sunny.7 mph76%30.27 "HgN/A
12:20 PM45 °FPartly sunny.7 mph76%30.27 "HgN/A
11:20 AM45 °FPartly sunny.2 mph76%30.27 "HgN/A
10:20 AM43 °FPartly sunny.3 mph81%30.30 "HgN/A
9:20 AM43 °FPartly sunny.6 mph81%30.27 "HgN/A
8:20 AM37 °FPartly sunny.3 mph93%30.30 "HgN/A
7:20 AM36 °FFog.3 mph100%30.27 "Hg2 mi
6:20 AM37 °FFog.2 mph93%30.30 "Hg2 mi
5:20 AM39 °FPassing clouds.6 mph87%30.30 "HgN/A
4:20 AM41 °FPassing clouds.5 mph87%30.30 "HgN/A
3:20 AM39 °FPassing clouds.3 mph93%30.33 "HgN/A
2:20 AM39 °FPassing clouds.2 mph93%30.33 "HgN/A
1:20 AM39 °FPassing clouds.3 mph87%30.33 "HgN/A
12:20 AM39 °FPassing clouds.3 mph93%30.33 "HgN/A
11:20 PM
Nov 20
39 °FPassing clouds.3 mph87%30.33 "HgN/A
10:20 PM43 °FPassing clouds.5 mph81%30.36 "HgN/A
9:20 PM43 °FPassing clouds.3 mph81%30.36 "HgN/A
8:20 PM45 °FPassing clouds.6 mph76%30.36 "HgN/A
7:20 PM45 °FPassing clouds.6 mph76%30.36 "HgN/A
6:20 PM43 °FPassing clouds.3 mph81%30.36 "HgN/A
Weather by CustomWeather, © 2014

See weather overviewHow to use our weather pages